Temperature
21 21 21 21 21 21 20 19 19 18 17 15 15 14 12 11 11 8 6 7 7 7 7 8 7 7 6 6 6 6 6 6 5 5 5 5 5 5 4 5 5 5 5 5 6 6 6 7 7
22 21 21 22 22 21 19 19 18 17 15 14 15 15 12 10 8 7 6 7 7 7 8 8 7 7 7 7 6 6 5 5 5 4 4 4 4 4 4 4 4 4 4 4 4 4 5 5 6
22 22 23 23 22 21 19 18 16 15 15 15 13 12 11 9 8 6 6 6 7 7 8 8 8 7 7 7 6 5 5 4 4 4 4 4 4 3 3 3 3 3 3 3 3 3 3 4 4
21 22 24 22 20 20 19 17 15 15 15 14 13 10 9 8 7 6 6 6 6 7 7 8 8 7 7 6 6 5 5 4 4 4 4 4 3 3 3 3 3 3 3 2 2 2 2 2 2
22 23 23 20 19 19 18 17 16 15 15 14 14 10 7 7 6 6 6 6 6 7 7 7 7 7 7 6 6 5 4 4 4 3 3 3 3 3 3 3 3 3 2 2 2 2 1 1 1
23 24 22 20 18 18 18 17 17 16 15 14 13 10 7 6 6 6 6 6 6 7 7 7 7 6 6 6 5 5 4 4 3 3 3 3 3 3 3 3 3 3 2 2 2 1 1 1 1
23 22 22 20 17 17 17 17 17 16 15 14 14 11 7 6 6 5 6 6 6 6 6 6 6 6 6 5 5 4 4 4 3 3 4 4 4 4 3 3 3 3 2 2 2 1 1 1 0
22 22 22 20 18 18 17 16 16 16 14 13 13 12 8 7 6 5 5 5 6 6 6 6 6 6 6 5 4 4 3 3 3 3 4 4 3 3 3 3 3 2 2 2 1 1 0 0 -0
22 22 21 21 20 17 16 15 14 13 12 12 12 11 10 8 6 6 5 5 5 5 5 5 6 6 5 5 4 4 4 3 3 3 3 3 3 3 2 2 1 1 1 0 0 -0 -1 -1 -0
22 20 18 18 19 17 15 15 13 13 12 11 10 9 8 7 6 6 6 5 5 4 5 5 5 5 5 5 4 4 3 3 3 2 2 2 2 2 1 1 0 -0 -1 -1 -1 -2 -2 -2 -2
19 17 17 17 17 16 16 15 13 13 13 12 10 8 7 7 6 6 6 6 5 4 5 5 5 5 5 4 4 3 2 2 2 2 1 1 1 1 -0 -0 -1 -2 -3 -3 -3 -3 -4 -4 -4
18 17 16 15 16 16 15 14 13 14 14 13 12 9 7 7 6 6 6 5 4 4 4 4 4 5 4 4 3 2 2 1 1 1 0 0 -0 -1 -1 -2 -3 -4 -5 -5 -5 -6 -6 -6 -6
16 15 14 14 15 15 15 14 14 14 13 12 11 9 8 7 7 6 6 5 4 4 4 4 4 4 4 3 2 2 1 1 1 0 -0 -1 -1 -2 -3 -3 -4 -5 -6 -6 -7 -7 -7 -7 -7
16 15 14 14 14 14 14 14 13 13 12 11 10 8 8 7 7 6 6 5 4 4 3 4 4 4 3 2 2 1 1 1 0 -0 -1 -1 -2 -3 -4 -4 -5 -6 -7 -7 -7 -8 -8 -8 -8
16 15 14 14 14 14 14 14 13 14 12 10 9 8 8 8 7 7 6 5 4 4 3 3 4 4 3 2 2 1 1 0 0 -0 -1 -2 -3 -4 -5 -5 -6 -7 -7 -8 -8 -8 -9 -9 -9
18 17 16 15 15 13 13 14 15 14 11 10 9 9 8 8 7 7 6 5 4 3 3 3 3 3 3 2 2 1 0 0 -0 -1 -2 -3 -3 -4 -5 -6 -7 -7 -8 -8 -9 -9 -9 -9 -10
18 18 19 15 15 14 12 14 14 12 11 11 10 9 9 8 7 7 6 5 4 3 3 3 3 3 2 2 1 1 0 0 -0 -1 -2 -3 -4 -5 -6 -6 -7 -8 -8 -8 -9 -9 -10 -10 -10
20 21 21 18 15 15 13 14 14 12 11 11 11 10 10 9 8 7 6 5 4 3 3 2 2 2 2 2 1 1 1 0 -0 -1 -2 -4 -4 -5 -6 -7 -8 -8 -9 -9 -9 -10 -10 -10 -10
20 20 20 19 16 15 15 15 16 13 11 11 11 11 10 10 9 8 7 5 4 3 3 2 2 2 2 2 2 1 1 0 -1 -2 -3 -4 -5 -6 -7 -8 -8 -8 -9 -9 -9 -10 -10 -10 -10
19 19 20 18 15 15 15 15 16 15 12 11 12 12 11 11 10 9 7 6 4 3 2 2 2 2 2 2 1 1 0 -0 -1 -3 -4 -5 -6 -6 -7 -8 -8 -9 -9 -9 -9 -10 -10 -10 -10
20 19 18 17 18 16 14 16 17 16 14 12 12 12 12 12 11 9 8 6 4 3 2 2 2 2 2 2 1 1 -0 -1 -2 -3 -4 -5 -6 -7 -8 -8 -9 -9 -10 -10 -10 -10 -10 -10 -10
19 17 17 17 15 17 16 16 15 15 13 13 13 12 12 12 11 10 9 7 5 3 2 2 2 2 2 1 1 0 -1 -1 -2 -3 -4 -5 -6 -7 -8 -9 -9 -10 -10 -10 -10 -10 -10 -10 -10
17 16 16 16 16 16 17 16 17 16 14 13 13 13 13 12 12 11 9 7 5 3 3 2 2 2 2 1 1 -0 -1 -2 -3 -4 -5 -6 -6 -7 -8 -9 -9 -10 -10 -10 -10 -10 -10 -10 -10
16 16 15 15 15 16 18 17 18 16 18 17 16 15 14 13 12 11 9 7 5 3 3 2 2 2 1 1 0 -0 -1 -2 -3 -4 -5 -6 -6 -7 -8 -9 -10 -10 -10 -10 -10 -10 -10 -10 -10
15 16 16 16 15 17 18 17 17 19 18 18 17 16 15 13 12 10 9 7 5 4 3 2 2 1 1 1 0 -1 -1 -2 -3 -4 -5 -6 -7 -7 -8 -9 -10 -10 -11 -11 -11 -11 -10 -10 -10
18 17 16 17 17 18 16 16 18 18 18 18 17 16 14 13 11 10 8 7 5 4 3 2 2 1 1 0 -0 -1 -2 -3 -3 -4 -5 -6 -7 -8 -9 -9 -10 -10 -11 -11 -11 -11 -10 -10 -10
17 17 16 16 18 16 17 19 19 16 15 15 14 13 13 12 11 9 8 6 4 3 2 2 2 1 1 0 -0 -1 -2 -3 -3 -4 -5 -6 -7 -8 -9 -9 -10 -11 -11 -11 -11 -11 -11 -11 -10
14 15 15 15 16 15 17 19 18 15 15 14 13 14 14 12 11 9 7 5 4 2 2 1 1 1 1 0 -0 -1 -2 -3 -3 -4 -5 -6 -7 -8 -8 -9 -10 -11 -11 -11 -11 -11 -11 -11 -11
14 15 15 15 16 14 15 17 20 18 19 18 16 16 15 14 12 10 7 5 3 2 1 1 1 1 1 0 -0 -1 -2 -3 -3 -4 -5 -6 -7 -7 -8 -9 -10 -10 -11 -11 -11 -11 -11 -11 -11
16 16 16 15 15 15 14 15 20 19 19 19 18 17 16 14 12 10 7 5 3 2 1 1 2 1 1 0 -0 -1 -2 -3 -3 -4 -5 -6 -7 -7 -8 -9 -10 -10 -11 -11 -11 -11 -11 -11 -11
Wind_Speed
7 11 7 2 4 3 6 7 8 8 6 7 8 8 9 7 7 11 6 7 8 10 13 15 16 17 18 20 21 22 23 24 24 25 25 26 26 26 26 27 27 27 27 28 28 29 29 29 29
8 7 4 4 4 2 6 7 10 9 9 8 6 8 9 8 10 10 7 6 9 11 13 13 15 16 18 19 20 21 22 23 23 24 25 25 25 26 26 26 26 27 27 27 27 28 28 29 29
9 8 4 3 4 5 8 11 14 12 9 6 6 8 6 7 9 6 6 6 12 12 13 13 14 15 17 18 19 20 21 22 23 23 24 25 25 25 25 25 26 26 26 27 27 27 27 28 28
5 4 4 3 8 7 9 14 13 11 6 7 9 8 5 6 5 8 7 8 12 12 12 11 13 14 15 17 18 19 20 21 21 22 23 24 24 24 24 25 26 26 27 27 27 27 27 27 28
4 4 3 5 6 8 12 14 12 10 8 7 8 8 7 7 11 11 8 10 10 10 9 9 11 12 13 14 16 17 18 20 20 21 23 24 23 24 24 25 26 27 27 28 28 28 28 28 28
4 4 4 6 8 9 9 9 8 11 9 6 8 9 7 9 10 9 9 10 10 9 8 8 9 11 11 12 14 16 17 19 20 20 22 23 23 24 24 25 26 27 28 28 29 29 28 29 29
4 4 3 8 8 7 8 6 6 9 8 7 6 8 9 10 10 9 9 11 10 8 8 8 10 11 11 11 12 14 15 17 19 20 22 23 23 24 25 25 27 28 29 29 30 29 30 30 30
5 2 3 7 9 7 9 4 4 4 7 4 2 6 9 13 11 9 8 8 9 8 8 8 10 10 10 11 12 13 14 16 18 19 22 22 22 23 24 25 27 28 29 30 30 30 31 31 29
4 3 3 4 7 9 11 6 4 5 8 4 4 6 13 19 13 9 8 7 7 7 8 8 9 9 11 10 11 12 13 15 16 17 20 20 21 21 21 24 26 27 28 29 29 30 31 30 28
5 3 6 6 6 10 11 8 8 6 8 6 7 11 17 14 12 10 9 8 8 7 6 8 7 8 10 10 11 11 11 12 14 15 17 18 19 19 19 23 25 26 27 27 28 30 28 27 25
6 6 6 7 7 11 9 9 9 8 7 9 13 15 15 13 11 10 8 9 8 8 5 6 5 6 8 9 10 10 10 11 13 13 15 16 16 17 18 19 20 22 22 22 24 23 23 24 25
6 7 7 6 5 8 8 8 7 8 2 3 15 19 16 13 11 10 9 9 9 8 6 5 3 5 6 7 8 8 9 9 11 11 13 14 14 15 16 17 19 19 19 19 19 20 22 23 24
6 6 8 6 4 6 6 6 5 7 6 6 14 17 15 13 11 9 9 9 8 8 7 4 3 5 5 5 6 8 8 8 10 10 11 13 12 12 15 16 17 18 18 18 19 19 20 20 21
8 9 8 6 5 3 4 6 3 7 10 10 13 14 14 13 12 10 9 8 8 8 7 5 4 3 3 4 6 7 7 8 8 9 10 11 12 13 14 14 16 16 17 18 19 19 18 17 18
10 8 6 6 6 5 4 7 9 7 11 11 12 12 13 12 11 11 11 9 8 8 6 5 2 1 3 4 5 6 7 7 7 7 9 10 12 13 14 13 13 16 18 19 18 18 17 15 15
7 5 6 8 8 6 4 8 7 13 12 12 12 12 12 12 12 10 11 9 9 8 6 5 2 1 2 4 6 7 6 6 7 7 8 9 12 13 13 12 13 17 18 17 14 11 6 8 9
7 8 5 8 9 8 7 6 7 12 12 12 12 12 13 12 12 11 11 11 10 8 7 6 4 2 1 3 6 6 6 6 7 7 7 9 11 12 13 13 14 17 16 14 14 8 8 10 10
2 5 4 7 10 9 9 10 8 12 13 12 12 12 13 14 14 12 12 12 10 9 7 6 4 3 1 2 4 5 5 6 8 7 7 9 11 12 14 14 14 16 12 8 8 10 9 9 10
6 6 7 3 8 7 10 12 10 15 13 12 12 13 14 14 13 13 13 12 11 10 8 7 5 3 1 0 2 3 3 4 6 7 8 9 11 13 14 13 13 13 8 7 9 10 11 10 8
6 8 6 5 7 5 8 11 10 14 17 14 13 13 14 13 13 13 13 13 12 11 10 7 6 3 2 1 1 3 4 4 7 8 7 9 11 13 14 12 11 12 8 9 9 9 9 12 9
8 3 4 5 3 8 5 7 6 5 10 12 12 12 12 14 14 14 14 13 12 11 10 8 6 4 3 2 2 3 3 4 4 3 4 9 13 14 13 14 13 12 9 8 9 10 11 12 12
4 6 3 5 6 3 6 4 7 7 8 11 13 13 13 12 12 13 15 15 13 11 10 8 7 5 4 3 3 3 4 4 5 4 4 10 13 13 14 14 13 12 11 8 9 9 9 11 13
3 2 4 6 6 5 6 5 4 7 9 13 15 15 14 12 12 12 14 15 12 11 10 8 7 7 5 4 4 4 5 4 4 5 6 6 9 12 14 15 13 12 11 10 9 9 10 9 10
4 4 6 4 3 5 6 4 4 7 7 8 11 13 13 12 11 10 11 13 10 11 10 8 8 7 7 6 5 5 5 6 6 7 6 5 5 8 12 14 13 14 13 10 10 9 11 10 10
5 4 3 4 4 4 4 3 7 8 8 7 9 10 10 11 11 10 12 13 12 12 11 9 9 8 8 7 6 5 5 6 7 6 6 6 5 5 6 12 12 13 13 14 13 8 10 10 10
3 3 3 3 3 2 3 6 6 8 8 6 5 6 8 9 10 11 12 13 12 12 12 11 10 9 8 6 6 5 5 4 4 5 6 6 6 6 10 12 13 15 15 15 12 7 9 9 9
4 3 2 3 5 4 6 7 4 5 6 7 8 8 10 10 10 11 12 12 12 13 12 11 10 8 8 7 6 6 5 5 6 6 5 5 5 9 11 13 12 13 13 12 10 7 10 9 9
4 5 2 3 3 5 7 7 6 9 10 12 12 12 12 11 11 11 12 13 12 12 11 10 9 9 7 7 6 5 5 6 5 5 7 7 7 9 9 9 10 10 10 10 8 8 9 10 10
6 4 5 4 3 3 5 7 4 10 9 8 10 11 12 13 13 12 12 12 11 11 11 10 9 9 8 7 6 5 5 5 5 6 7 6 6 8 7 8 8 8 8 8 8 9 10 10 11
3 6 7 5 5 5 4 9 6 8 7 7 7 7 8 11 12 11 12 12 11 11 11 11 10 9 8 7 6 6 6 6 6 7 7 6 6 8 9 9 8 9 9 8 9 10 11 11 12
Wind_Direction
237 234 233 249 246 110 90 92 110 118 85 63 52 64 73 47 47 117 116 72 66 52 43 25 24 26 26 27 26 25 23 22 20 18 17 15 14 13 12 11 9 7 5 3 1 359 356 354 353
258 241 251 234 252 143 108 128 115 93 105 111 87 89 88 81 89 107 108 87 77 64 53 30 29 29 29 28 26 24 22 20 18 16 14 12 11 10 9 8 6 4 2 0 358 356 353 351 349
269 259 251 248 35 46 121 113 104 104 122 115 74 41 65 100 102 94 105 113 89 75 67 38 33 32 30 28 26 23 20 17 15 13 11 9 8 7 6 5 4 1 359 357 355 353 350 348 345
275 251 235 50 72 48 107 115 122 125 109 103 112 92 69 52 83 109 125 103 87 77 74 52 36 34 31 28 25 21 18 15 12 11 9 7 5 4 4 3 1 358 356 354 352 350 347 345 342
238 260 197 100 88 85 99 120 140 139 132 139 122 108 103 92 101 114 109 90 85 80 75 64 42 33 29 25 21 18 15 12 10 9 7 5 3 2 1 0 358 356 353 352 349 347 345 343 340
260 266 252 127 115 106 111 136 158 121 117 123 121 116 122 134 128 125 124 107 93 85 69 57 42 30 22 19 17 12 11 9 7 7 6 3 2 360 359 359 356 353 351 349 347 344 343 341 338
297 298 3 103 127 143 136 152 151 126 140 151 138 115 134 154 137 141 132 115 99 86 72 58 51 29 12 10 12 7 7 6 5 6 4 2 1 359 357 357 353 351 349 348 345 343 342 340 338
314 280 107 123 150 143 128 138 78 110 108 80 101 147 159 154 143 144 129 121 119 103 80 51 51 33 13 3 1 3 4 4 4 4 2 2 359 356 353 353 349 348 348 346 344 343 341 340 340
283 245 118 99 142 129 134 135 82 47 101 117 56 39 127 136 146 148 157 164 139 106 87 65 45 29 13 1 0 358 359 0 2 2 359 359 356 351 349 347 346 346 345 344 343 343 341 342 339
341 27 64 29 46 131 152 145 142 155 146 149 114 96 118 137 155 174 184 154 123 99 81 71 49 31 17 2 354 352 353 357 357 1 359 356 354 348 349 346 343 344 342 343 341 340 341 338 334
34 65 87 46 52 122 144 135 159 176 187 183 164 148 146 159 174 186 168 128 115 108 88 76 60 45 23 358 349 342 346 355 351 356 354 356 353 346 346 344 339 338 338 338 335 336 335 332 329
77 66 85 82 72 118 139 141 179 218 86 106 154 154 160 175 184 184 163 136 129 119 112 89 61 60 30 356 335 336 346 349 345 350 353 358 349 345 344 338 334 334 333 332 334 331 326 325 324
95 99 84 95 100 112 130 171 206 215 120 100 130 151 169 183 186 178 149 137 142 133 127 116 80 58 21 340 332 340 340 339 338 345 352 354 349 343 339 332 329 328 329 331 329 323 321 321 319
110 116 119 125 111 129 185 193 219 218 137 142 149 167 180 189 185 165 151 168 162 139 130 112 76 36 353 348 345 328 326 325 337 341 345 346 350 342 334 327 324 323 327 325 320 317 316 314 314
131 127 139 160 166 161 229 233 212 179 148 162 169 181 188 195 188 175 172 179 157 137 135 128 143 23 349 351 330 313 307 322 329 335 339 341 349 338 332 321 318 320 322 319 316 311 310 312 314
180 175 186 181 178 142 212 267 188 148 162 179 183 190 195 200 193 184 177 167 149 147 150 138 158 345 343 342 316 304 309 324 325 334 331 337 341 331 327 318 314 316 319 315 310 305 310 308 305
203 231 177 159 186 161 213 264 131 147 176 190 194 199 198 202 201 191 178 163 157 160 154 161 157 209 312 323 308 311 317 325 327 324 322 328 329 325 324 315 309 315 315 309 311 318 308 306 306
352 325 348 161 183 191 219 247 190 174 190 201 201 206 205 206 204 195 178 166 161 156 159 175 170 178 17 333 325 314 318 323 313 306 310 322 322 321 319 309 310 314 309 306 306 306 303 302 304
333 315 297 96 150 204 244 255 233 180 194 209 210 208 213 211 200 190 177 166 160 161 174 181 175 162 129 69 328 311 311 301 299 300 307 318 317 315 310 304 306 308 303 300 300 304 306 305 302
279 286 307 104 157 212 272 271 253 183 196 205 213 215 213 209 199 188 175 170 171 175 177 173 170 154 161 153 257 253 266 270 281 284 309 314 309 306 305 304 302 301 299 299 300 304 304 308 310
267 280 352 340 266 213 264 278 193 169 187 200 217 227 222 209 202 189 178 177 176 179 172 168 158 174 197 186 254 279 286 289 299 322 316 305 302 302 302 301 300 299 299 297 300 301 305 311 310
322 55 357 300 295 244 194 281 197 182 201 214 218 222 228 221 203 190 180 180 180 172 147 150 168 189 199 202 235 273 286 289 293 294 284 295 303 305 306 302 301 301 298 293 300 311 304 306 310
355 52 285 278 268 277 202 245 203 168 216 222 218 219 220 216 205 190 178 177 170 151 147 160 175 195 199 200 230 252 267 276 286 290 290 296 303 304 304 302 305 302 298 295 298 302 302 301 301
312 269 237 259 263 255 177 215 243 196 202 191 195 202 204 200 195 182 163 158 151 143 149 163 183 201 198 203 226 242 263 281 293 297 299 298 293 296 299 305 307 302 297 296 298 300 302 301 302
225 269 244 226 222 219 135 218 249 176 160 174 185 187 185 182 178 169 159 160 156 155 161 174 191 204 201 203 222 239 254 267 274 286 291 294 293 292 290 304 300 297 296 300 303 304 301 301 305
256 279 309 287 292 322 192 230 246 153 151 154 163 170 172 179 176 174 169 166 165 167 171 181 194 201 197 201 219 234 247 254 260 272 279 283 283 281 290 297 297 296 300 305 305 303 301 304 305
275 225 32 306 285 272 252 231 192 136 172 191 203 207 209 200 185 177 171 169 172 174 177 184 190 193 195 200 215 233 242 258 263 270 272 271 272 288 296 298 294 296 300 301 302 297 300 302 302
267 317 248 237 267 275 277 255 222 194 218 213 213 215 214 200 187 181 178 177 177 174 176 179 183 192 193 196 214 227 231 247 256 268 271 271 277 288 291 292 293 295 298 300 299 298 297 301 301
186 219 229 257 274 245 277 267 219 169 174 190 207 211 203 193 189 185 182 177 171 166 169 176 186 191 192 198 209 227 242 252 258 264 267 272 281 288 289 292 293 295 294 294 295 296 297 297 299
215 219 198 212 234 213 255 272 246 172 162 185 216 207 188 184 181 179 175 171 171 172 174 183 189 189 192 193 199 224 243 252 258 265 275 283 284 288 290 292 293 296 298 292 290 293 296 291 291
Height
1546 1547 1549 1551 1552 1556 1568 1572 1574 1581 1585 1590 1591 1592 1596 1603 1605 1617 1618 1615 1615 1614 1612 1610 1608 1606 1604 1601 1599 1596 1594 1591 1589 1586 1583 1581 1578 1576 1573 1571 1569 1566 1564 1562 1560 1558 1556 1553 1551
1547 1548 1551 1550 1552 1563 1574 1573 1577 1581 1588 1591 1593 1595 1598 1606 1609 1612 1613 1614 1613 1612 1611 1609 1607 1605 1603 1600 1598 1595 1593 1590 1588 1585 1583 1580 1578 1575 1572 1570 1567 1565 1562 1560 1558 1556 1553 1551 1549
1547 1548 1550 1548 1555 1564 1572 1573 1581 1586 1590 1591 1594 1597 1601 1608 1609 1610 1611 1612 1612 1611 1609 1608 1606 1604 1602 1600 1597 1594 1592 1590 1587 1584 1582 1579 1576 1574 1571 1568 1565 1563 1560 1558 1555 1553 1551 1548 1546
1548 1549 1549 1551 1564 1565 1567 1576 1582 1587 1590 1592 1595 1600 1604 1608 1608 1608 1610 1611 1611 1609 1608 1607 1605 1603 1601 1598 1596 1593 1591 1588 1586 1583 1580 1578 1575 1572 1570 1567 1564 1561 1558 1555 1553 1550 1547 1545 1543
1549 1548 1549 1560 1567 1569 1572 1577 1582 1585 1589 1592 1594 1600 1605 1607 1606 1607 1608 1609 1609 1608 1607 1606 1604 1602 1600 1597 1595 1592 1590 1587 1584 1582 1579 1576 1574 1571 1568 1565 1562 1559 1556 1553 1550 1547 1544 1542 1539
1550 1546 1552 1562 1570 1573 1576 1579 1581 1584 1589 1592 1594 1599 1604 1606 1606 1607 1607 1608 1607 1607 1606 1605 1603 1601 1598 1596 1593 1591 1588 1586 1583 1581 1578 1575 1573 1570 1567 1564 1561 1557 1554 1551 1548 1545 1541 1538 1535
1550 1548 1550 1559 1572 1575 1578 1580 1581 1584 1588 1592 1593 1597 1602 1604 1605 1605 1606 1606 1606 1606 1605 1604 1602 1600 1597 1595 1592 1590 1587 1585 1582 1580 1577 1574 1572 1569 1566 1562 1559 1555 1552 1549 1545 1542 1538 1535 1531
1549 1549 1552 1559 1569 1573 1577 1580 1582 1584 1587 1591 1593 1595 1597 1601 1602 1604 1605 1605 1605 1604 1603 1602 1600 1598 1596 1593 1591 1589 1586 1584 1581 1579 1576 1573 1570 1567 1564 1560 1556 1553 1549 1546 1542 1538 1534 1530 1527
1549 1551 1556 1558 1564 1571 1577 1581 1583 1585 1587 1590 1592 1592 1591 1595 1599 1602 1603 1604 1603 1603 1601 1600 1598 1596 1594 1592 1590 1587 1585 1582 1579 1577 1574 1571 1567 1564 1560 1557 1553 1550 1546 1542 1538 1534 1530 1526 1521
1551 1554 1562 1563 1562 1568 1575 1579 1583 1585 1588 1590 1592 1592 1592 1594 1597 1600 1601 1603 1602 1600 1599 1598 1596 1595 1593 1590 1587 1585 1582 1580 1577 1574 1571 1567 1564 1560 1557 1553 1550 1546 1542 1538 1534 1530 1526 1521 1516
1555 1561 1564 1566 1566 1569 1575 1578 1582 1583 1585 1586 1587 1590 1591 1593 1596 1598 1600 1600 1599 1598 1597 1595 1594 1592 1590 1588 1585 1582 1580 1577 1574 1571 1567 1564 1560 1557 1553 1548 1544 1540 1536 1532 1528 1525 1521 1517 1513
1561 1565 1566 1569 1570 1572 1575 1578 1581 1581 1582 1581 1582 1585 1588 1591 1593 1596 1597 1597 1596 1595 1594 1593 1592 1590 1588 1585 1582 1580 1577 1574 1571 1568 1564 1560 1556 1552 1548 1544 1539 1536 1532 1528 1524 1520 1516 1513 1509
1564 1568 1570 1572 1572 1574 1576 1578 1579 1579 1580 1581 1582 1583 1586 1589 1591 1593 1594 1593 1593 1592 1591 1590 1589 1587 1585 1582 1579 1577 1574 1571 1568 1565 1561 1557 1553 1548 1544 1540 1536 1532 1528 1524 1520 1516 1512 1509 1505
1565 1569 1572 1573 1574 1576 1577 1577 1578 1576 1577 1579 1580 1582 1584 1586 1588 1590 1590 1590 1590 1589 1588 1587 1586 1584 1582 1579 1577 1574 1571 1568 1566 1562 1559 1554 1550 1545 1541 1536 1533 1529 1525 1522 1518 1513 1509 1505 1501
1567 1570 1573 1574 1574 1576 1577 1576 1572 1572 1574 1577 1578 1580 1582 1584 1585 1586 1586 1587 1587 1585 1585 1584 1583 1581 1579 1576 1574 1571 1568 1566 1563 1559 1556 1551 1547 1543 1538 1534 1530 1526 1523 1519 1515 1510 1506 1502 1497
1565 1566 1571 1571 1572 1574 1579 1573 1563 1567 1571 1574 1576 1578 1579 1580 1582 1582 1583 1583 1582 1581 1581 1580 1580 1578 1576 1573 1571 1568 1565 1563 1560 1556 1553 1549 1544 1540 1535 1531 1527 1524 1520 1516 1512 1507 1503 1498 1492
1564 1562 1559 1570 1569 1571 1575 1569 1566 1565 1568 1571 1573 1574 1575 1576 1578 1578 1579 1578 1577 1577 1577 1577 1576 1575 1572 1570 1567 1565 1563 1560 1557 1553 1549 1545 1541 1537 1533 1529 1525 1521 1517 1513 1509 1504 1499 1494 1488
1559 1554 1551 1559 1565 1567 1570 1566 1563 1563 1565 1566 1568 1570 1571 1571 1572 1574 1574 1573 1573 1573 1573 1573 1572 1571 1569 1567 1564 1562 1559 1557 1554 1550 1546 1542 1538 1534 1530 1526 1522 1518 1514 1510 1506 1501 1496 1490 1484
1555 1556 1556 1555 1561 1564 1563 1559 1556 1558 1561 1562 1563 1564 1565 1566 1568 1569 1569 1568 1568 1568 1568 1569 1568 1567 1565 1563 1561 1558 1556 1553 1550 1547 1543 1539 1535 1531 1527 1523 1519 1515 1511 1507 1502 1498 1492 1486 1481
1556 1557 1554 1557 1560 1561 1559 1555 1548 1550 1552 1555 1557 1558 1559 1561 1563 1564 1563 1562 1562 1563 1564 1564 1563 1562 1561 1559 1557 1554 1552 1549 1546 1543 1540 1536 1532 1528 1524 1520 1516 1512 1508 1503 1499 1495 1489 1482 1478
1554 1555 1557 1559 1556 1555 1560 1552 1545 1545 1548 1551 1552 1553 1554 1555 1556 1557 1557 1556 1557 1558 1558 1559 1559 1559 1557 1555 1553 1550 1548 1546 1543 1540 1536 1532 1528 1524 1521 1517 1513 1509 1505 1500 1496 1492 1486 1480 1473
1557 1557 1558 1559 1563 1556 1557 1561 1549 1545 1547 1547 1546 1547 1547 1548 1550 1551 1550 1550 1551 1553 1553 1554 1555 1554 1553 1551 1549 1547 1544 1542 1539 1536 1532 1528 1525 1521 1517 1513 1509 1505 1501 1497 1493 1488 1484 1478 1471
1557 1558 1560 1559 1560 1559 1552 1558 1543 1541 1544 1540 1538 1539 1539 1542 1544 1545 1545 1545 1546 1547 1547 1549 1550 1550 1549 1547 1545 1543 1541 1538 1535 1531 1528 1524 1521 1517 1513 1509 1506 1502 1497 1493 1489 1484 1480 1475 1469
1557 1558 1559 1560 1561 1562 1545 1550 1542 1538 1530 1528 1530 1532 1533 1535 1538 1540 1541 1541 1541 1541 1542 1544 1545 1545 1544 1543 1541 1539 1537 1534 1531 1527 1524 1520 1516 1512 1509 1506 1501 1497 1493 1489 1485 1480 1475 1471 1465
1558 1562 1563 1564 1569 1552 1541 1546 1539 1522 1521 1523 1525 1527 1529 1531 1532 1534 1535 1534 1534 1535 1537 1539 1540 1540 1540 1539 1537 1536 1533 1530 1527 1523 1520 1516 1512 1508 1505 1501 1497 1493 1489 1485 1480 1476 1471 1466 1461
1552 1556 1565 1566 1559 1548 1545 1546 1527 1515 1517 1519 1521 1523 1525 1526 1527 1528 1528 1528 1529 1529 1531 1534 1535 1535 1535 1534 1533 1531 1529 1526 1523 1520 1516 1512 1508 1504 1500 1496 1492 1488 1485 1480 1476 1471 1466 1462 1457
1552 1552 1553 1559 1551 1556 1545 1527 1517 1516 1516 1517 1519 1520 1520 1521 1522 1522 1523 1523 1523 1524 1526 1528 1530 1530 1530 1529 1528 1527 1525 1522 1519 1516 1512 1508 1504 1500 1496 1492 1488 1484 1480 1476 1471 1466 1462 1457 1452
1556 1554 1557 1560 1562 1564 1541 1527 1523 1519 1515 1514 1514 1514 1514 1515 1516 1516 1516 1517 1518 1519 1521 1523 1524 1525 1525 1525 1524 1523 1521 1518 1515 1512 1508 1504 1500 1496 1492 1488 1484 1480 1475 1471 1466 1462 1457 1453 1448
1556 1555 1554 1552 1551 1562 1556 1535 1501 1503 1503 1505 1506 1507 1507 1508 1509 1509 1510 1511 1513 1514 1515 1517 1519 1520 1520 1519 1519 1518 1516 1514 1511 1507 1504 1500 1496 1492 1488 1484 1479 1475 1471 1466 1462 1457 1452 1448 1443
1543 1544 1547 1556 1551 1550 1553 1535 1497 1496 1497 1500 1502 1503 1503 1503 1503 1504 1505 1506 1507 1507 1509 1511 1513 1514 1514 1514 1514 1513 1511 1509 1506 1503 1500 1496 1492 1488 1484 1480 1475 1471 1466 1462 1457 1452 1448 1443 1438